KAITUO 1B
1 40912U 15049P   19220.28125281  .00000980  00000-0  49040-4 0  9996
2 40912  97.4499 226.9773 0015247   2.3627 120.2263 15.19671078214991
TIANWANG 1C (TW-1C)
1 40926U 15051B   19220.39412015  .00012025  00000-0  17081-3 0  9992
2 40926  97.1316 266.5173 0008626 171.1062 312.4173 15.56509166218040
TIANWANG 1B (TW-1B)
1 40927U 15051C   19220.19718600  .00010057  00000-0  15201-3 0  9995
2 40927  97.1352 265.5909 0007897 182.0934 221.0072 15.54868352217860
TIANWANG 1A (TW-1A)
1 40928U 15051D   19220.33720087  .00002693  00000-0  67276-4 0  9991
2 40928  97.1431 250.5188 0009397 246.8798 176.3745 15.40984651216972
LAPAN A2
1 40931U 15052B   19215.07574832 +.00000640 +00000-0 +41238-7 0  9999
2 40931 005.9990 092.8905 0012958 075.9377 284.2056 14.76610632207986
LQSAT
1 40958U 15057A   19218.19884569 -.00000007  00000-0  65776-5 0  9999
2 40958  97.8959 286.0783 0019617  86.3492 273.9959 14.73085334205947
CHUBUSAT 2
1 41338U 16012B   19219.92753463 +.00000263 +00000-0 +13661-4 0  9992
2 41338 031.0021 185.5123 0013865 240.6911 119.2339 15.00164238190467
CHUBUSAT 3
1 41339U 16012C   19220.29033426  .00000199  00000-0  86633-5 0  9993
2 41339  31.0098 181.2374 0013537 252.7207 107.1960 15.00338616190516
OUFTI-1
1 41458U 16025C   19219.82433990 +.00001052 +00000-0 +57498-4 0  9991
2 41458 098.1015 309.2196 0166199 188.0297 171.8264 15.05887200180111
E-STAR-2
1 41459U 16025D   19220.18506971  .00002243  00000-0  11782-3 0  9991
2 41459  98.1028 309.2315 0167886 188.3739 171.4686 15.05534326180142
AAUSAT 4
1 41460U 16025E   19220.29672670  .00001807  00000-0  93820-4 0  9994
2 41460  98.0970 310.7160 0157997 180.0135 180.1122 15.07439155180299
NUSAT 1
1 41557U 16033B   19220.42866664  .00000966  00000-0  38799-4 0  9992
2 41557  97.4176 307.6352 0015381 116.0395 244.2430 15.27289699177830
BEESAT 4
1 41619U 16040W   19219.64033065  .00001044  00000-0  47038-4 0  9996
2 41619  97.3642 280.9267 0010692 199.7002 160.3824 15.23207158161460
PRATHAM
1 41783U 16059A   19220.14220546  .00000020  00000-0  13210-4 0  9995
2 41783  98.0638 278.6009 0032648 223.6394 136.2225 14.63002719152926
ALSAT 1N
1 41789U 16059G   19220.36119287  .00000054  00000-0  19240-4 0  9990
2 41789  98.0671 280.9206 0027744 212.1101 147.8415 14.64253859153063
NAYIF 1
1 42017U 17008BX  19219.61264882  .00001143  00000-0  47813-4 0  9995
2 42017  97.4001 286.1867 0006211  10.0380 350.0981 15.25617259137535
MAX VALIER SAT
1 42778U 17036P   19219.69090875  .00000723  00000-0  34523-4 0  9994
2 42778  97.3508 276.2473 0013738  54.3932 305.8582 15.22073245117844
